When you browse on this site, cookies collect data to enhance your experience and personalize the content and advertising you see.
Visit our Privacy Policy to learn more. By continuing to use the site, you agree to this use of cookies and data.
  • Em Portugal
  • Lista de países
  • Para 7 dias
  • Temperatura da água
  • Mapas de satélite
  • Mapa do tempo
  • Widgets de tempo
  • user-avatar
    Iniciar Sessão

    Previsão horária em Etchmiadzin

    Hoje, 11 Dezembro, Terça-feira

    Tempo Temperatura Precipitação Vento Pressão Humidade
    00:00 +5°C° 0 mm 2 m/s 685 mmHg 73%
    01:00 +5°C° 0 mm 2 m/s 685 mmHg 73%
    02:00 +5°C° 0 mm 2 m/s 685 mmHg 73%
    03:00 +4°C° 0 mm 2 m/s 684 mmHg 75%
    04:00 +4°C° 0 mm 2 m/s 685 mmHg 75%
    05:00 +4°C° 0 mm 2 m/s 685 mmHg 75%
    06:00 +4°C° 0 mm 2 m/s 685 mmHg 75%
    07:00 +4°C° 0 mm 3 m/s 685 mmHg 72%
    08:00 +5°C° 0 mm 3 m/s 684 mmHg 69%
    09:00 +7°C° 0 mm 3 m/s 684 mmHg 65%
    10:00 +8°C° 0 mm 3 m/s 684 mmHg 63%
    11:00 +8°C° 0 mm 4 m/s 683 mmHg 61%
    12:00 +10°C° 0 mm 4 m/s 683 mmHg 58%
    13:00 +10°C° 0.1 mm 4 m/s 683 mmHg 58%
    14:00 +10°C° 0.1 mm 4 m/s 683 mmHg 58%
    15:00 +10°C° 0 mm 4 m/s 682 mmHg 58%
    16:00 +8°C° 0.1 mm 4 m/s 682 mmHg 61%
    17:00 +8°C° 0.1 mm 3 m/s 682 mmHg 64%
    18:00 +7°C° 0.1 mm 3 m/s 683 mmHg 68%
    19:00 +7°C° 0.2 mm 3 m/s 683 mmHg 69%
    20:00 +7°C° 0.2 mm 3 m/s 683 mmHg 69%
    21:00 +7°C° 0.2 mm 2 m/s 683 mmHg 70%
    22:00 +7°C° 0.8 mm 2 m/s 683 mmHg 73%
    23:00 +7°C° 0.8 mm 2 m/s 683 mmHg 75%

    Amanhã, 12 Dezembro, Quarta-feira

    Tempo Temperatura Precipitação Vento Pressão Humidade
    00:00 +7°C° 0.8 mm 2 m/s 683 mmHg 78%
    01:00 +7°C° 0.7 mm 2 m/s 683 mmHg 79%
    02:00 +7°C° 0.7 mm 2 m/s 683 mmHg 80%
    03:00 +7°C° 0.7 mm 2 m/s 683 mmHg 81%
    04:00 +7°C° 0.4 mm 3 m/s 683 mmHg 81%
    05:00 +5°C° 0.4 mm 3 m/s 683 mmHg 81%
    06:00 +5°C° 0.4 mm 3 m/s 683 mmHg 81%
    07:00 +7°C° 0.4 mm 3 m/s 682 mmHg 80%
    08:00 +6°C° 0.4 mm 4 m/s 682 mmHg 79%
    09:00 +6°C° 0.4 mm 4 m/s 682 mmHg 78%
    10:00 +7°C° 0.4 mm 5 m/s 681 mmHg 75%
    11:00 +8°C° 0.4 mm 6 m/s 680 mmHg 71%
    12:00 +9°C° 0.4 mm 7 m/s 680 mmHg 67%
    13:00 +9°C° 1 mm 7 m/s 679 mmHg 67%
    14:00 +9°C° 1 mm 6 m/s 679 mmHg 66%
    15:00 +9°C° 1 mm 5 m/s 679 mmHg 65%
    16:00 +9°C° 1.3 mm 5 m/s 679 mmHg 69%
    17:00 +8°C° 1.3 mm 4 m/s 679 mmHg 72%
    18:00 +9°C° 1.3 mm 3 m/s 679 mmHg 75%
    19:00 +8°C° 1.4 mm 4 m/s 679 mmHg 76%
    20:00 +7°C° 1.4 mm 4 m/s 679 mmHg 78%
    21:00 +7°C° 1.4 mm 4 m/s 679 mmHg 79%
    22:00 +7°C° 1.4 mm 4 m/s 679 mmHg 80%
    23:00 +8°C° 1.4 mm 3 m/s 680 mmHg 81%

    Depois de amanhã, 13 Dezembro, Quinta-feira

    Tempo Temperatura Precipitação Vento Pressão Humidade
    00:00 +7°C° 1.4 mm 3 m/s 680 mmHg 82%
    01:00 +7°C° 1.2 mm 3 m/s 680 mmHg 84%
    02:00 +7°C° 1.2 mm 3 m/s 680 mmHg 85%
    03:00 +5°C° 1.2 mm 3 m/s 680 mmHg 86%
    04:00 +5°C° 0.4 mm 3 m/s 680 mmHg 84%
    05:00 +5°C° 0.4 mm 3 m/s 680 mmHg 83%
    06:00 +4°C° 0.4 mm 3 m/s 680 mmHg 82%
    07:00 +4°C° 0.1 mm 3 m/s 681 mmHg 80%
    08:00 +5°C° 0.1 mm 3 m/s 681 mmHg 78%
    09:00 +5°C° 0.1 mm 3 m/s 682 mmHg 75%
    10:00 +7°C° 0.1 mm 3 m/s 682 mmHg 72%
    11:00 +7°C° 0.1 mm 3 m/s 682 mmHg 68%
    12:00 +7°C° 0.1 mm 4 m/s 683 mmHg 64%
    13:00 +7°C° 0.1 mm 4 m/s 683 mmHg 63%
    14:00 +8°C° 0.1 mm 3 m/s 683 mmHg 62%
    15:00 +8°C° 0.1 mm 3 m/s 684 mmHg 61%
    16:00 +7°C° 0 mm 3 m/s 684 mmHg 63%
    17:00 +5°C° 0 mm 2 m/s 685 mmHg 65%
    18:00 +4°C° 0 mm 2 m/s 686 mmHg 67%
    19:00 +3°C° 0 mm 2 m/s 686 mmHg 67%
    20:00 +3°C° 0 mm 2 m/s 687 mmHg 68%
    21:00 +2°C° 0 mm 2 m/s 687 mmHg 68%
    22:00 +2°C° 0 mm 2 m/s 688 mmHg 68%
    23:00 +1°C° 0 mm 2 m/s 688 mmHg 68%

    14 Dezembro, Sexta-feira

    Tempo Temperatura Precipitação Vento Pressão Humidade
    00:00 +1°C° 0 mm 2 m/s 688 mmHg 68%
    01:00 +1°C° 0 mm 2 m/s 689 mmHg 68%
    02:00 -1°C° 0 mm 2 m/s 689 mmHg 68%
    03:00 -1°C° 0 mm 2 m/s 689 mmHg 68%
    04:00 -1°C° 0 mm 2 m/s 689 mmHg 69%
    05:00 -2°C° 0 mm 2 m/s 689 mmHg 69%
    06:00 -2°C° 0 mm 2 m/s 690 mmHg 69%
    07:00 -1°C° 0 mm 2 m/s 690 mmHg 68%
    08:00 +1°C° 0 mm 2 m/s 690 mmHg 67%
    09:00 +2°C° 0 mm 2 m/s 690 mmHg 67%
    10:00 +3°C° 0 mm 2 m/s 690 mmHg 65%
    11:00 +4°C° 0 mm 2 m/s 689 mmHg 64%
    12:00 +5°C° 0 mm 2 m/s 689 mmHg 62%
    13:00 +5°C° 0.1 mm 2 m/s 689 mmHg 63%
    14:00 +5°C° 0.1 mm 2 m/s 688 mmHg 64%
    15:00 +5°C° 0.1 mm 2 m/s 688 mmHg 65%
    16:00 +4°C° 0.1 mm 2 m/s 688 mmHg 67%
    17:00 +4°C° 0.1 mm 2 m/s 688 mmHg 69%
    18:00 +3°C° 0.1 mm 2 m/s 689 mmHg 71%
    19:00 +3°C° 0.2 mm 2 m/s 689 mmHg 72%
    20:00 +3°C° 0.2 mm 2 m/s 689 mmHg 73%
    21:00 +4°C° 0.2 mm 1 m/s 689 mmHg 74%
    22:00 +4°C° 0.2 mm 1 m/s 689 mmHg 74%
    23:00 +3°C° 0.2 mm 1 m/s 690 mmHg 75%

    15 Dezembro, Sábado

    Tempo Temperatura Precipitação Vento Pressão Humidade
    00:00 +3°C° 0.2 mm 1 m/s 690 mmHg 75%
    01:00 +3°C° 0.1 mm 1 m/s 690 mmHg 75%
    02:00 +2°C° 0.1 mm 1 m/s 690 mmHg 75%
    03:00 +2°C° 0.1 mm 1 m/s 690 mmHg 75%
    04:00 +2°C° 0 mm 1 m/s 690 mmHg 75%
    05:00 +2°C° 0 mm 1 m/s 691 mmHg 75%
    06:00 +1°C° 0 mm 1 m/s 691 mmHg 75%
    07:00 +2°C° 0 mm 1 m/s 691 mmHg 73%
    08:00 +3°C° 0 mm 1 m/s 692 mmHg 72%
    09:00 +3°C° 0 mm 1 m/s 692 mmHg 70%
    10:00 +4°C° 0 mm 1 m/s 692 mmHg 68%
    11:00 +5°C° 0 mm 1 m/s 692 mmHg 66%
    12:00 +6°C° 0 mm 1 m/s 692 mmHg 65%
    13:00 +6°C° 0 mm 1 m/s 691 mmHg 65%
    14:00 +6°C° 0 mm 1 m/s 691 mmHg 65%
    15:00 +6°C° 0 mm 1 m/s 691 mmHg 65%
    16:00 +5°C° 0 mm 1 m/s 692 mmHg 65%
    17:00 +4°C° 0 mm 1 m/s 692 mmHg 65%
    18:00 +2°C° 0 mm 1 m/s 692 mmHg 65%
    19:00 +2°C° 0 mm 1 m/s 692 mmHg 64%
    20:00 +2°C° 0 mm 1 m/s 693 mmHg 63%
    21:00 +2°C° 0 mm 1 m/s 693 mmHg 62%
    22:00 +2°C° 0 mm 1 m/s 693 mmHg 61%
    23:00 +2°C° 0 mm 1 m/s 693 mmHg 60%

    16 Dezembro, Domingo

    Tempo Temperatura Precipitação Vento Pressão Humidade
    00:00 +2°C° 0 mm 1 m/s 693 mmHg 60%
    01:00 +2°C° 0 mm 1 m/s 693 mmHg 60%
    02:00 +2°C° 0 mm 1 m/s 693 mmHg 60%
    03:00 +2°C° 0 mm 1 m/s 692 mmHg 60%
    04:00 +2°C° 0 mm 1 m/s 692 mmHg 59%
    05:00 +2°C° 0 mm 1 m/s 692 mmHg 59%
    06:00 +2°C° 0 mm 1 m/s 692 mmHg 59%
    07:00 +2°C° 0 mm 1 m/s 692 mmHg 58%
    08:00 +3°C° 0 mm 1 m/s 693 mmHg 57%
    09:00 +4°C° 0 mm 1 m/s 693 mmHg 56%
    10:00 +5°C° 0 mm 1 m/s 693 mmHg 56%
    11:00 +6°C° 0 mm 2 m/s 692 mmHg 55%
    12:00 +7°C° 0 mm 2 m/s 692 mmHg 55%
    13:00 +7°C° 0 mm 2 m/s 692 mmHg 55%
    14:00 +7°C° 0 mm 2 m/s 691 mmHg 55%
    15:00 +7°C° 0 mm 2 m/s 691 mmHg 55%
    16:00 +6°C° 0 mm 2 m/s 691 mmHg 55%
    17:00 +5°C° 0 mm 2 m/s 691 mmHg 55%
    18:00 +5°C° 0 mm 1 m/s 692 mmHg 55%
    19:00 +5°C° 0 mm 1 m/s 692 mmHg 55%
    20:00 +5°C° 0 mm 1 m/s 691 mmHg 55%
    21:00 +5°C° 0 mm 1 m/s 691 mmHg 55%
    22:00 +4°C° 0 mm 1 m/s 691 mmHg 55%
    23:00 +4°C° 0 mm 1 m/s 691 mmHg 55%
    Mostrar mais